Tracking 30009 objects as of 7-Dec-2024
HD Live streaming from Space Station
objects crossing your sky now

STARLINK-31697

Track STARLINK-31697 now!
10-day predictions
STARLINK-31697 is classified as:


NORAD ID: 59583
Int'l Code: 2024-076V
Perigee: 450.5 km
Apogee: 451.9 km
Inclination: 43.0 °
Period: 93.5 minutes
Semi major axis: 6822 km
RCS: Unknown
Launch date: April 23, 2024
Source: United States (US)
Launch site: AIR FORCE EASTERN TEST RANGE (AFETR)
Your satellite tracking list
Your tracking list is empty




NASA's NSSDC Master Catalog

Two Line Element Set (TLE):
1 59583U 24076V   24341.99923837  .00005752  00000-0  14493-3 0  9996
2 59583  42.9996  86.0146 0001048 269.2256  90.8480 15.40684761 36191
Source of the keplerian elements: AFSPC